COSMOS 1275 DEB, 12693

Orbit data source: Space-Track

COSMOS 1275 DEB, 12693 is space debris in LEO originally from a launch on Thu, 04 Jun 1981 UTC launched from the Plesetsk Missile And Space Complex (PKMTR). Debris objects in space refer to the collection of defunct objects orbiting the Earth. Examples of debris include non-operational satellites, rocket bodies, and fragments generated from explosions, collisions, or faulty payload assembly.

Loading next visibility...
COSMOS 1275 DEB details
Identifier
12693, 1981-053AM
Orbit
LEO
Last TLE update6 hours ago
Origin
Flag of CISVMF (CIS)
ManufacturerUnknown
MissionSpacecraft
Bus & MotorUnknown
MassUnknown
Launch date (UTC)
1981-06-04 (44 years ago)
Launch vehicleUnknown
Launch site
Plesetsk Missile And Space Complex (PKMTR)
Object type
Payload
Rocket body
Debris
Shape & HBRUnknown
Radar Cross SectionMedium (>0.1 m² and <1 m²)

Expand to show TLE details & history

TLE from 6 hours ago
0 COSMOS 1275 DEB
1 12693U 81053AM  24361.24336868  .00004411  00000-0  20804-2 0  9990
2 12693  83.1456 354.1887 0045272 233.9909 136.6409 14.19126943911708
Epoch: 2024-12-26T05:50Z
Definitive object data (Epoch: 2024-12-26T05:50:27.053Z)
Latitude10.85671°
Longitude172.66446°
Altitude854.313 km
Speed7.414 km/s
True Right ascension23h 42m 00s
True Declination10° 47' 39"
Sunlit
Object was in daylight at TLE epoch
Visualization TLE readout
Latitude-83.12711°
Longitude73.89763°
Altitude830.291 km
Speed7.451 km/s
Apparent Right ascension22h 48m 45s
Apparent Declination-66° 25' 18"
Sunlit
Object is in daylight
Visualization observer readout
Local Sidereal Time11:29:19
Azimuth171.111° S
Elevation-62.886°
Doppler factor1
Orbital elements
Apogee altitude857.999 km
Perigee altitude792.775 km
Semi-major axis7,203.524 km
Eccentricity0.0045272
Inclination83.1456°
RAAN354.1887°
Arg. of periapsis233.9909°
True anomaly136.99562°
Mean anomaly136.6409°
Eccentric anomaly136.8184°
Mean motion3.54998 °/min
BSTAR0.0020804
Orbital period101.41 mins
Loading maneuver chart data...
Loading historical data...
Loading historical data...
Loading historical data...
Loading historical data...
Loading historical data...
Loading historical data...
Loading historical data...

COSMOS 1275 DEB Visibility forecast

Observer location: undefined°, undefined

Span
Click to sort rows by Start time (UTC) header in descending order
Start Az.
Max El. time (UTC)
Max El. Az.
Max El.
End time (UTC)
End Az.
6 mins2024-12-26 13:09:51.658Z313.641° NW2024-12-26 13:12:51.658Z280.139° WNW15.474°2024-12-26 13:15:51.658Z244.874° WSW
9 mins2024-12-27 00:31:51.658Z186.99° SSW2024-12-27 00:35:51.658Z344.02° N44.757°2024-12-27 00:40:51.658Z6.042° NNE
9 mins2024-12-27 11:08:51.658Z11.492° NNE2024-12-27 11:12:51.658Z81.962° E35.872°2024-12-27 11:17:51.658Z151.716° SSE
|